#�ϑ�����,���ϕ���,���ϕ���,�ő啗��,�ő啗����������,�ő�u�ԕ���,�ő�u�ԕ�����������
#(�N����),(m/s)   ,(16����),(m/s)   ,(16����)        ,(m/s)       ,(16����)            
2015/12/11 0:01,3.5,3,3.5,3,5.5,3
2015/12/11 0:02,3.5,3,3.5,3,5.2,3
2015/12/11 0:03,3.6,3,3.6,3,6.2,2
2015/12/11 0:04,3.6,3,3.6,3,5.5,3
2015/12/11 0:05,3.6,3,3.6,3,5,3
2015/12/11 0:06,3.5,3,3.6,3,4.7,1
2015/12/11 0:07,3.5,2,3.5,3,6.4,4
2015/12/11 0:08,3.6,3,3.6,3,6.3,3
2015/12/11 0:09,3.6,3,3.6,3,5,2
2015/12/11 0:10,3.6,3,3.6,3,6,3
2015/12/11 0:11,3.5,2,3.6,3,5.5,2
2015/12/11 0:12,3.5,2,3.5,3,5.1,3
2015/12/11 0:13,3.5,2,3.6,3,6.8,3
2015/12/11 0:14,3.5,2,3.6,3,5.6,3
2015/12/11 0:15,3.5,2,3.5,3,5.8,2
2015/12/11 0:16,3.7,2,3.7,2,6.7,3
2015/12/11 0:17,3.5,2,3.7,2,4.1,2
2015/12/11 0:18,3.5,2,3.5,2,6.2,1
2015/12/11 0:19,3.4,2,3.5,2,6.1,1
2015/12/11 0:20,3.3,2,3.4,2,5.4,2
2015/12/11 0:21,3.2,2,3.3,2,3.9,4
2015/12/11 0:22,3.2,2,3.2,2,5.4,2
2015/12/11 0:23,3.1,2,3.2,2,4.8,3
2015/12/11 0:24,3,2,3.1,2,4.8,3
2015/12/11 0:25,3,2,3,2,6.4,2
2015/12/11 0:26,3,2,3.1,2,5.8,2
2015/12/11 0:27,3.1,2,3.1,2,5.8,2
2015/12/11 0:28,3,2,3.1,2,4.2,3
2015/12/11 0:29,3.1,2,3.1,2,6.9,3
2015/12/11 0:30,3.1,2,3.1,2,5.8,3
2015/12/11 0:31,3.2,2,3.2,2,5.5,3
2015/12/11 0:32,3.1,2,3.2,2,5.1,1
2015/12/11 0:33,3.1,2,3.1,2,4.4,2
2015/12/11 0:34,3.1,2,3.1,2,4.8,2
2015/12/11 0:35,3,2,3.1,2,5.2,1
2015/12/11 0:36,2.8,2,3,2,3.1,16
2015/12/11 0:37,2.7,2,2.8,2,4.9,3
2015/12/11 0:38,2.6,2,2.7,2,5.8,2
2015/12/11 0:39,2.6,2,2.7,2,5.8,4
2015/12/11 0:40,2.5,2,2.6,2,4.3,2
2015/12/11 0:41,2.5,2,2.5,2,5.4,1
2015/12/11 0:42,2.5,2,2.5,2,4.4,2
2015/12/11 0:43,2.5,2,2.5,2,4.4,2
2015/12/11 0:44,2.5,2,2.5,2,4.2,2
2015/12/11 0:45,2.4,2,2.5,2,3.3,2
2015/12/11 0:46,2.6,2,2.6,2,4.3,1
2015/12/11 0:47,2.7,2,2.7,2,4.4,2
2015/12/11 0:48,2.7,2,2.7,2,5.7,2
2015/12/11 0:49,2.7,2,2.7,2,4.4,2
2015/12/11 0:50,2.7,2,2.7,2,4.1,1
2015/12/11 0:51,2.7,2,2.7,2,5.4,1
2015/12/11 0:52,2.7,2,2.7,2,5.5,1
2015/12/11 0:53,2.7,2,2.8,2,4.9,2
2015/12/11 0:54,2.7,2,2.7,2,4.7,2
2015/12/11 0:55,2.8,2,2.8,2,5.8,2
2015/12/11 0:56,2.8,2,2.8,2,3.5,1
2015/12/11 0:57,2.7,2,2.7,2,4.2,15
2015/12/11 0:58,2.5,1,2.7,2,3.3,2
2015/12/11 0:59,2.4,1,2.5,2,2.9,1
2015/12/11 1:00,2.4,2,2.4,2,3.2,2
2015/12/11 1:01,2.2,2,2.4,2,3.9,1
2015/12/11 1:02,2.3,2,2.3,2,4.9,1
2015/12/11 1:03,2.3,2,2.3,2,4.3,2
2015/12/11 1:04,2.4,2,2.4,2,5.5,1
2015/12/11 1:05,2.3,2,2.4,2,4.5,1
2015/12/11 1:06,2.5,2,2.5,2,5.8,2
2015/12/11 1:07,2.5,2,2.5,1,3.9,1
2015/12/11 1:08,2.7,2,2.7,2,5.4,2
2015/12/11 1:09,2.7,2,2.7,2,4.2,1
2015/12/11 1:10,2.8,2,2.8,2,4.9,2
2015/12/11 1:11,2.9,2,2.9,2,4.8,1
2015/12/11 1:12,2.9,2,2.9,2,5.1,2
2015/12/11 1:13,2.9,1,2.9,2,4.7,2
2015/12/11 1:14,2.8,1,2.9,2,3.9,2
2015/12/11 1:15,2.7,1,2.8,2,2.2,1
2015/12/11 1:16,2.6,1,2.7,2,3.7,2
2015/12/11 1:17,2.6,1,2.6,2,3.5,2
2015/12/11 1:18,2.5,2,2.6,2,3.3,3
2015/12/11 1:19,2.5,2,2.6,2,2.5,2
2015/12/11 1:20,2.5,2,2.5,2,3.8,2
2015/12/11 1:21,2.4,2,2.5,2,4.2,2
2015/12/11 1:22,2.3,2,2.3,2,4.5,2
2015/12/11 1:23,2.3,2,2.3,1,5.2,1
2015/12/11 1:24,2.3,2,2.3,1,3.7,1
2015/12/11 1:25,2.3,2,2.3,1,2.7,1
2015/12/11 1:26,2.2,2,2.3,1,3.6,2
2015/12/11 1:27,2.2,2,2.2,1,2.9,2
2015/12/11 1:28,2.1,2,2.2,2,3.2,2
2015/12/11 1:29,2.2,2,2.2,2,2.7,1
2015/12/11 1:30,2.1,2,2.1,2,3.2,4
2015/12/11 1:31,2.1,2,2.1,2,2.7,1
2015/12/11 1:32,1.9,2,2.1,2,2.7,1
2015/12/11 1:33,1.8,2,1.9,2,2.5,1
2015/12/11 1:34,1.7,2,1.8,2,2.5,3
2015/12/11 1:35,1.7,2,1.7,2,3,1
2015/12/11 1:36,1.7,2,1.7,2,2.5,2
2015/12/11 1:37,1.7,2,1.7,2,2.1,4
2015/12/11 1:38,1.6,2,1.7,2,2.2,3
2015/12/11 1:39,1.6,2,1.6,2,2.2,2
2015/12/11 1:40,1.6,2,1.6,2,3.1,4
2015/12/11 1:41,1.6,2,1.7,2,2.9,3
2015/12/11 1:42,1.6,2,1.6,2,2.6,3
2015/12/11 1:43,1.8,2,1.8,2,5,3
2015/12/11 1:44,1.9,2,1.9,2,4.2,3
2015/12/11 1:45,2.1,2,2.1,2,4.2,3
2015/12/11 1:46,2.2,2,2.2,2,3.8,3
2015/12/11 1:47,2.3,2,2.3,2,3.2,2
2015/12/11 1:48,2.3,2,2.4,2,3.5,1
2015/12/11 1:49,2.3,2,2.4,2,3.5,1
2015/12/11 1:50,2.3,2,2.3,2,2.9,2
2015/12/11 1:51,2.2,2,2.3,2,3.2,1
2015/12/11 1:52,2.4,2,2.4,2,3.2,1
2015/12/11 1:53,2.2,2,2.4,2,2.9,2
2015/12/11 1:54,2,2,2.2,2,2.2,3
2015/12/11 1:55,1.8,1,2,2,2.5,2
2015/12/11 1:56,1.7,1,1.8,2,3,1
2015/12/11 1:57,1.7,2,1.7,2,2.7,1
2015/12/11 1:58,1.5,2,1.7,2,1.1,2
2015/12/11 1:59,1.4,2,1.5,2,1.3,2
2015/12/11 2:00,1.3,2,1.4,2,1.1,1
2015/12/11 2:01,1.3,2,1.3,2,1.5,2
2015/12/11 2:02,1.1,2,1.2,2,1.5,16
2015/12/11 2:03,1,2,1.1,2,1.5,16
2015/12/11 2:04,1.1,1,1.1,1,3.2,2
2015/12/11 2:05,1.1,1,1.1,1,3,2
2015/12/11 2:06,1.2,1,1.2,1,3.1,16
2015/12/11 2:07,1.2,1,1.2,2,3,15
2015/12/11 2:08,1.4,1,1.4,2,3.6,15
2015/12/11 2:09,1.6,16,1.6,16,3.9,15
2015/12/11 2:10,1.7,16,1.7,16,1.8,15
2015/12/11 2:11,1.7,15,1.7,16,1.6,11
2015/12/11 2:12,1.7,15,1.7,16,2.1,11
2015/12/11 2:13,1.9,15,1.9,15,2.9,10
2015/12/11 2:14,1.9,14,2,14,2.7,11
2015/12/11 2:15,2.1,13,2.1,13,3,11
2015/12/11 2:16,2.1,13,2.1,13,3,11
2015/12/11 2:17,2.1,12,2.1,13,3,11
2015/12/11 2:18,2.1,12,2.1,13,2.9,12
2015/12/11 2:19,2.1,12,2.1,13,3.8,12
2015/12/11 2:20,2.2,12,2.2,12,4.1,12
2015/12/11 2:21,2.4,12,2.4,12,3.5,13
2015/12/11 2:22,2.4,12,2.4,12,2.9,13
2015/12/11 2:23,2.4,13,2.4,12,3,14
2015/12/11 2:24,2.3,13,2.4,12,1.8,14
2015/12/11 2:25,2.2,13,2.3,12,1.6,16
2015/12/11 2:26,2.1,14,2.1,12,2.7,1
2015/12/11 2:27,2.1,14,2.1,12,2.6,1
2015/12/11 2:28,2,15,2.1,12,2.5,1
2015/12/11 2:29,1.9,15,2,12,3.1,2
2015/12/11 2:30,1.9,15,1.9,12,3.2,1
2015/12/11 2:31,1.8,16,1.9,12,3.3,2
2015/12/11 2:32,1.9,16,1.9,12,4.2,2
2015/12/11 2:33,1.9,1,1.9,13,4.3,4
2015/12/11 2:34,2.1,1,2.1,13,3.5,4
2015/12/11 2:35,2.2,2,2.2,2,3.2,4
2015/12/11 2:36,2.3,2,2.3,2,3.9,4
2015/12/11 2:37,2.4,3,2.4,3,3.7,3
2015/12/11 2:38,2.5,3,2.5,3,3.9,3
2015/12/11 2:39,2.6,3,2.6,3,3.2,3
2015/12/11 2:40,2.7,3,2.7,3,3.5,3
2015/12/11 2:41,2.7,4,2.8,3,3,3
2015/12/11 2:42,2.7,4,2.7,3,3,3
2015/12/11 2:43,2.7,3,2.7,3,4.2,3
2015/12/11 2:44,2.7,3,2.7,3,4.4,3
2015/12/11 2:45,2.9,3,2.9,3,7,2
2015/12/11 2:46,3.2,3,3.2,3,9.3,2
2015/12/11 2:47,3.4,3,3.4,3,8.4,2
2015/12/11 2:48,3.7,2,3.7,2,12.6,3
2015/12/11 2:49,4.1,2,4.1,2,11.9,2
2015/12/11 2:50,4.4,2,4.4,2,9.9,3
2015/12/11 2:51,4.5,2,4.5,2,7.1,2
2015/12/11 2:52,4.5,2,4.5,2,4.3,1
2015/12/11 2:53,4.6,2,4.7,2,8.2,16
2015/12/11 2:54,4.6,2,4.6,2,4.7,3
2015/12/11 2:55,4.5,2,4.6,2,7.1,3
2015/12/11 2:56,4.3,2,4.5,2,4.4,3
2015/12/11 2:57,4.1,3,4.3,2,4.7,6
2015/12/11 2:58,3.9,3,4.2,2,6.8,6
2015/12/11 2:59,3.7,4,3.9,2,7,6
2015/12/11 3:00,3.7,4,3.7,2,7.2,7
2015/12/11 3:01,3.8,5,3.8,2,9.5,8
2015/12/11 3:02,4.1,5,4.1,2,9,7
2015/12/11 3:03,4,6,4.1,2,8.3,8
2015/12/11 3:04,4.2,6,4.2,2,9.1,7
2015/12/11 3:05,4.2,6,4.2,2,7.1,7
2015/12/11 3:06,4.3,7,4.3,2,6.3,8
2015/12/11 3:07,4.2,7,4.3,7,5.5,8
2015/12/11 3:08,4.1,7,4.2,7,5.6,6
2015/12/11 3:09,3.9,7,4.1,7,4.3,9
2015/12/11 3:10,3.6,7,3.9,7,4.2,6
2015/12/11 3:11,3.2,7,3.6,7,3.8,10
2015/12/11 3:12,3,7,3.2,7,3.9,7
2015/12/11 3:13,2.8,7,2.9,7,3.2,3
2015/12/11 3:14,2.6,6,2.8,7,2.1,5
2015/12/11 3:15,2.3,6,2.5,7,2.2,4
2015/12/11 3:16,2.2,6,2.3,7,3.7,4
2015/12/11 3:17,2.2,6,2.2,7,4.4,6
2015/12/11 3:18,2.1,6,2.2,7,3.1,7
2015/12/11 3:19,2,6,2.1,7,2.7,7
2015/12/11 3:20,2,5,2,7,2.6,6
2015/12/11 3:21,2.1,5,2.1,7,3.2,5
2015/12/11 3:22,2,5,2.1,7,2.4,3
2015/12/11 3:23,2,5,2,7,2.9,3
2015/12/11 3:24,2.1,5,2.1,6,3,4
2015/12/11 3:25,2.1,4,2.1,6,2.7,1
2015/12/11 3:26,2,4,2.1,6,2.5,1
2015/12/11 3:27,1.8,4,2,6,1.8,1
2015/12/11 3:28,1.6,3,1.8,6,1.4,15
2015/12/11 3:29,1.5,2,1.6,5,1.3,14
2015/12/11 3:30,1.4,1,1.5,5,1.3,16
2015/12/11 3:31,1.3,1,1.4,5,2,15
2015/12/11 3:32,1.3,16,1.3,5,2.4,16
2015/12/11 3:33,1.2,16,1.3,5,1.6,15
2015/12/11 3:34,1.2,16,1.2,5,1.9,15
2015/12/11 3:35,1.1,16,1.2,4,1.9,15
2015/12/11 3:36,1.1,15,1.1,4,1.4,15
2015/12/11 3:37,1.1,15,1.1,3,1.5,15
2015/12/11 3:38,1.1,15,1.1,3,1.5,14
2015/12/11 3:39,1.2,15,1.2,2,1.6,14
2015/12/11 3:40,1.3,15,1.3,1,2.2,13
2015/12/11 3:41,1.3,15,1.3,1,2.2,13
2015/12/11 3:42,1.3,14,1.4,14,1.8,13
2015/12/11 3:43,1.3,14,1.3,14,0.6,10
2015/12/11 3:44,1.2,13,1.2,14,1.6,8
2015/12/11 3:45,1.2,13,1.2,14,1.9,8
2015/12/11 3:46,1.3,12,1.3,14,2.2,10
2015/12/11 3:47,1.4,12,1.4,14,2.5,11
2015/12/11 3:48,1.4,11,1.4,14,2.1,12
2015/12/11 3:49,1.5,11,1.5,11,3.1,11
2015/12/11 3:50,1.4,11,1.5,11,2.4,12
2015/12/11 3:51,1.4,11,1.4,11,3,9
2015/12/11 3:52,1.4,10,1.4,11,2.5,10
2015/12/11 3:53,1.6,11,1.6,11,2.5,10
2015/12/11 3:54,1.7,11,1.7,11,3.1,13
2015/12/11 3:55,1.8,11,1.8,11,3.1,12
2015/12/11 3:56,1.9,12,1.9,12,2.9,12
2015/12/11 3:57,1.8,12,1.9,12,2.7,11
2015/12/11 3:58,1.8,12,1.8,12,2.1,10
2015/12/11 3:59,1.8,11,1.8,12,3.2,9
2015/12/11 4:00,1.9,11,1.9,12,4.2,10
2015/12/11 4:01,1.9,11,1.9,12,2.1,14
2015/12/11 4:02,1.9,11,2,11,4.5,10
2015/12/11 4:03,2,11,2,11,3.7,10
2015/12/11 4:04,2,11,2,11,3.8,11
2015/12/11 4:05,1.9,11,2,11,3.5,11
2015/12/11 4:06,2,11,2,11,5.8,10
2015/12/11 4:07,2.1,11,2.1,11,5,12
2015/12/11 4:08,2.2,11,2.2,11,4.1,10
2015/12/11 4:09,2.3,11,2.3,11,4.7,9
2015/12/11 4:10,2.4,11,2.4,11,4.8,10
2015/12/11 4:11,2.7,11,2.7,11,6.4,10
2015/12/11 4:12,2.8,11,2.8,11,6.9,9
2015/12/11 4:13,3,11,3,11,7.9,10
2015/12/11 4:14,3.2,11,3.2,11,5.1,10
2015/12/11 4:15,3.5,10,3.5,10,6.4,9
2015/12/11 4:16,3.5,10,3.5,10,5.4,10
2015/12/11 4:17,3.6,10,3.6,10,5.5,9
2015/12/11 4:18,3.7,10,3.7,10,6.1,10
2015/12/11 4:19,3.7,10,3.8,10,6,10
2015/12/11 4:20,3.6,10,3.7,10,4.7,10
2015/12/11 4:21,3.4,10,3.6,10,3.7,9
2015/12/11 4:22,3.2,10,3.3,10,4.1,11
2015/12/11 4:23,2.9,10,3.2,10,3.3,10
2015/12/11 4:24,2.6,10,2.9,10,0.6,6
2015/12/11 4:25,2.2,10,2.5,10,3.6,8
2015/12/11 4:26,2.1,10,2.2,10,2.9,9
2015/12/11 4:27,1.9,10,2.1,10,1.8,11
2015/12/11 4:28,1.7,10,1.9,10,2,10
2015/12/11 4:29,1.5,10,1.6,10,2,11
2015/12/11 4:30,1.4,10,1.5,10,1.8,9
2015/12/11 4:31,1.3,11,1.4,10,2.1,11
2015/12/11 4:32,1.3,11,1.3,10,2.7,11
2015/12/11 4:33,1.1,11,1.2,10,0.3,13
2015/12/11 4:34,1.1,11,1.1,10,1.4,10
2015/12/11 4:35,1,11,1.1,10,1.1,8
2015/12/11 4:36,0.9,11,1,10,1.5,12
2015/12/11 4:37,1,11,1,10,2.2,11
2015/12/11 4:38,1,11,1,10,3.2,10
2015/12/11 4:39,1.1,11,1.1,10,3.5,9
2015/12/11 4:40,1.2,11,1.2,10,2.9,12
2015/12/11 4:41,1.2,11,1.2,11,3,9
2015/12/11 4:42,1.2,11,1.2,11,2.4,11
2015/12/11 4:43,1.3,10,1.3,10,2.6,10
2015/12/11 4:44,1.3,10,1.3,10,2.5,9
2015/12/11 4:45,1.4,10,1.4,11,3.1,10
2015/12/11 4:46,1.5,10,1.5,10,2.7,11
2015/12/11 4:47,1.5,10,1.5,10,2.2,9
2015/12/11 4:48,1.5,10,1.5,10,2.4,10
2015/12/11 4:49,1.4,10,1.4,10,2.6,10
2015/12/11 4:50,1.5,10,1.5,10,2.7,10
2015/12/11 4:51,1.5,10,1.5,10,3.1,12
2015/12/11 4:52,1.6,10,1.6,10,3.2,9
2015/12/11 4:53,1.7,10,1.7,10,3.5,10
2015/12/11 4:54,1.7,10,1.7,10,2.5,10
2015/12/11 4:55,1.7,10,1.8,10,1.8,9
2015/12/11 4:56,1.6,10,1.7,10,1.8,9
2015/12/11 4:57,1.5,10,1.6,10,2.1,10
2015/12/11 4:58,1.5,10,1.5,10,2.1,10
2015/12/11 4:59,1.3,10,1.5,10,1.8,11
2015/12/11 5:00,1.2,10,1.3,10,1.8,14
2015/12/11 5:01,1.1,10,1.2,10,1.9,12
2015/12/11 5:02,0.9,10,1.1,10,1.3,16
2015/12/11 5:03,0.7,11,0.9,10,1,14
2015/12/11 5:04,0.7,12,0.7,10,0.9,16
2015/12/11 5:05,0.6,12,0.7,10,0.4,1
2015/12/11 5:06,0.5,13,0.6,10,0.4,11
2015/12/11 5:07,0.5,13,0.6,10,1.9,13
2015/12/11 5:08,0.5,13,0.5,10,1.8,10
2015/12/11 5:09,0.7,13,0.7,10,3.3,10
2015/12/11 5:10,0.9,13,0.9,10,4.1,10
2015/12/11 5:11,1.2,12,1.2,12,4.1,10
2015/12/11 5:12,1.5,12,1.5,12,3.9,10
2015/12/11 5:13,1.7,11,1.7,11,3.5,11
2015/12/11 5:14,1.9,11,1.9,11,4.1,10
2015/12/11 5:15,2.2,11,2.2,11,3.5,12
2015/12/11 5:16,2.5,11,2.5,11,3.9,11
2015/12/11 5:17,2.6,11,2.6,11,3.3,10
2015/12/11 5:18,2.8,11,2.8,11,3.8,10
2015/12/11 5:19,2.8,11,2.8,11,3.6,10
2015/12/11 5:20,2.7,11,2.8,11,4.1,10
2015/12/11 5:21,2.7,11,2.7,11,4.1,10
2015/12/11 5:22,2.6,11,2.7,11,3.8,10
2015/12/11 5:23,2.6,11,2.6,11,3.8,10
2015/12/11 5:24,2.6,10,2.7,11,4.2,9
2015/12/11 5:25,2.6,10,2.7,11,3.6,10
2015/12/11 5:26,2.5,10,2.6,11,3.6,11
2015/12/11 5:27,2.5,10,2.5,11,4.9,10
2015/12/11 5:28,2.6,10,2.6,11,5.8,10
2015/12/11 5:29,2.8,10,2.8,11,5.2,10
2015/12/11 5:30,2.9,10,2.9,10,4.8,9
2015/12/11 5:31,2.9,10,2.9,10,4.4,11
2015/12/11 5:32,3.1,10,3.1,10,5.2,11
2015/12/11 5:33,3.1,10,3.1,10,4.3,11
2015/12/11 5:34,2.9,10,3,10,2.9,10
2015/12/11 5:35,2.8,11,2.9,10,1.8,10
2015/12/11 5:36,2.6,11,2.8,10,1.9,14
2015/12/11 5:37,2.6,11,2.7,10,4.1,10
2015/12/11 5:38,2.5,11,2.6,10,3.7,12
2015/12/11 5:39,2.2,11,2.4,10,1.4,12
2015/12/11 5:40,1.9,11,2.1,10,1.9,9
2015/12/11 5:41,1.8,11,1.9,10,2.7,11
2015/12/11 5:42,1.7,11,1.8,10,3.1,11
2015/12/11 5:43,1.6,11,1.7,10,3.3,12
2015/12/11 5:44,1.6,12,1.6,11,2.4,12
2015/12/11 5:45,1.6,11,1.6,11,1.6,13
2015/12/11 5:46,1.7,11,1.7,11,3.2,12
2015/12/11 5:47,1.6,11,1.8,11,2.2,12
2015/12/11 5:48,1.6,11,1.6,11,4.2,1
2015/12/11 5:49,1.6,11,1.6,11,2.6,1
2015/12/11 5:50,1.6,12,1.6,11,1.3,3
2015/12/11 5:51,1.6,12,1.6,11,3.7,9
2015/12/11 5:52,1.6,12,1.6,11,2.9,13
2015/12/11 5:53,1.4,12,1.5,11,2.4,9
2015/12/11 5:54,1.4,12,1.4,11,1.9,9
2015/12/11 5:55,1.6,11,1.6,11,3.1,9
2015/12/11 5:56,1.6,10,1.6,11,3.1,8
2015/12/11 5:57,1.5,10,1.6,11,1.9,8
2015/12/11 5:58,1.4,11,1.5,11,2.7,9
2015/12/11 5:59,1.4,10,1.4,11,3.6,10
2015/12/11 6:00,1.6,10,1.6,12,3.5,11
2015/12/11 6:01,1.7,10,1.7,10,3.7,10
2015/12/11 6:02,1.8,10,1.8,10,5.2,9
2015/12/11 6:03,1.8,10,1.8,10,3.2,10
2015/12/11 6:04,1.9,10,1.9,10,3.3,10
2015/12/11 6:05,1.9,10,1.9,10,3.7,10
2015/12/11 6:06,2,10,2,10,4.1,10
2015/12/11 6:07,2.2,10,2.2,10,4.1,11
2015/12/11 6:08,2.4,10,2.4,10,4.1,11
2015/12/11 6:09,2.5,10,2.5,10,3.9,10
2015/12/11 6:10,2.4,10,2.5,10,3.3,10
2015/12/11 6:11,2.4,10,2.5,10,3.7,11
2015/12/11 6:12,2.4,10,2.4,10,4.3,10
2015/12/11 6:13,2.6,10,2.6,10,4.2,10
2015/12/11 6:14,2.5,10,2.6,10,3.3,10
2015/12/11 6:15,2.5,10,2.5,10,3.1,10
2015/12/11 6:16,2.5,10,2.5,10,4.8,10
2015/12/11 6:17,2.5,10,2.5,10,4.2,10
2015/12/11 6:18,2.6,10,2.6,10,4.7,10
2015/12/11 6:19,2.6,10,2.6,10,4.3,10
2015/12/11 6:20,2.7,10,2.7,10,4.1,10
2015/12/11 6:21,2.6,10,2.7,10,4.2,10
2015/12/11 6:22,2.5,10,2.6,10,2.6,9
2015/12/11 6:23,2.4,10,2.5,10,2.7,9
2015/12/11 6:24,2.3,10,2.4,10,2,9
2015/12/11 6:25,2.2,10,2.2,10,2,9
2015/12/11 6:26,2,9,2.1,10,1.3,9
2015/12/11 6:27,1.7,10,2,10,0.1,8
2015/12/11 6:28,1.3,9,1.6,10,0.4,8
2015/12/11 6:29,1.1,9,1.3,10,1.4,8
2015/12/11 6:30,0.9,9,1.1,10,1.6,9
2015/12/11 6:31,0.8,9,0.9,10,1.8,8
2015/12/11 6:32,0.8,9,0.8,10,2.4,9
2015/12/11 6:33,0.8,9,0.8,10,2.1,8
2015/12/11 6:34,0.8,9,0.8,10,2.2,9
2015/12/11 6:35,0.8,9,0.8,10,1.5,9
2015/12/11 6:36,0.8,9,0.8,9,1.1,9
2015/12/11 6:37,0.9,9,0.9,9,1.8,9
2015/12/11 6:38,1,9,1,9,1.8,8
2015/12/11 6:39,1,9,1,9,1.4,9
2015/12/11 6:40,1,9,1,9,1.8,9
2015/12/11 6:41,1,9,1,9,2,10
2015/12/11 6:42,1.1,9,1.1,9,2.1,10
2015/12/11 6:43,1.1,10,1.1,9,2.6,10
2015/12/11 6:44,1.2,10,1.2,10,3.1,11
2015/12/11 6:45,1.4,10,1.4,10,3.6,10
2015/12/11 6:46,1.6,10,1.6,10,3.2,11
2015/12/11 6:47,1.6,10,1.6,10,2.2,11
2015/12/11 6:48,1.6,11,1.6,10,1.5,11
2015/12/11 6:49,1.6,11,1.6,10,1.6,9
2015/12/11 6:50,1.5,11,1.6,10,1.5,10
2015/12/11 6:51,1.4,11,1.5,10,0.9,10
2015/12/11 6:52,1.3,10,1.4,10,0.3,9
2015/12/11 6:53,1.1,10,1.3,10,0.1,7
2015/12/11 6:54,0.9,10,1.1,10,0.1,7
2015/12/11 6:55,0.6,9,0.9,10,0.8,6
2015/12/11 6:56,0.4,9,0.6,10,0.1,8
2015/12/11 6:57,0.3,9,0.4,10,0.8,9
2015/12/11 6:58,0.3,9,0.3,11,0.6,9
2015/12/11 6:59,0.2,9,0.3,11,0.4,11
2015/12/11 7:00,0.2,9,0.2,11,0.1,13
2015/12/11 7:01,0.1,9,0.2,11,1,11
2015/12/11 7:02,0.3,10,0.3,10,1.9,13
2015/12/11 7:03,0.4,11,0.4,10,1.8,12
2015/12/11 7:04,0.5,11,0.5,10,0.9,11
2015/12/11 7:05,0.5,11,0.5,9,1.4,9
2015/12/11 7:06,0.6,11,0.6,11,1.8,10
2015/12/11 7:07,0.7,11,0.7,11,3.1,10
2015/12/11 7:08,0.9,11,0.9,11,3.3,10
2015/12/11 7:09,1.1,11,1.1,11,3.7,10
2015/12/11 7:10,1.2,10,1.2,10,3,8
2015/12/11 7:11,1.3,10,1.3,10,3.8,9
2015/12/11 7:12,1.4,10,1.4,10,3.9,11
2015/12/11 7:13,1.5,10,1.5,10,3.9,10
2015/12/11 7:14,1.8,10,1.8,10,4.7,10
2015/12/11 7:15,1.8,10,1.8,10,3.9,9
2015/12/11 7:16,1.9,10,1.9,10,2.5,8
2015/12/11 7:17,1.9,10,1.9,10,3,10
2015/12/11 7:18,1.9,10,1.9,10,3.2,10
2015/12/11 7:19,1.9,10,1.9,10,3.2,10
2015/12/11 7:20,2.1,10,2.1,10,5.1,12
2015/12/11 7:21,2.2,10,2.2,10,4.7,9
2015/12/11 7:22,2.3,10,2.3,10,4.4,10
2015/12/11 7:23,2.4,10,2.4,10,4.5,11
2015/12/11 7:24,2.4,10,2.4,10,5,11
2015/12/11 7:25,2.6,10,2.6,10,4.3,10
2015/12/11 7:26,2.7,10,2.7,10,4.8,9
2015/12/11 7:27,2.6,10,2.7,10,3.9,8
2015/12/11 7:28,2.6,10,2.7,10,3.1,9
2015/12/11 7:29,2.5,10,2.6,10,2.7,10
2015/12/11 7:30,2.4,11,2.5,10,3,13
2015/12/11 7:31,2.3,11,2.4,10,3.3,12
2015/12/11 7:32,2.1,11,2.3,10,2.7,11
2015/12/11 7:33,1.9,11,2.1,10,2,14
2015/12/11 7:34,1.7,12,1.9,10,3,16
2015/12/11 7:35,1.6,12,1.7,10,3.1,15
2015/12/11 7:36,1.4,13,1.5,10,1.1,2
2015/12/11 7:37,1.2,14,1.4,10,0.9,15
2015/12/11 7:38,1.1,14,1.2,10,0.1,9
2015/12/11 7:39,1,14,1.1,10,0.1,16
2015/12/11 7:40,0.9,14,1,11,2.1,8
2015/12/11 7:41,0.9,14,0.9,11,2.6,8
2015/12/11 7:42,1,12,1,11,2.7,10
2015/12/11 7:43,1,10,1,11,2.7,9
2015/12/11 7:44,1.1,10,1.1,12,2.4,9
2015/12/11 7:45,1.1,9,1.1,13,2.4,9
2015/12/11 7:46,1.1,9,1.1,13,1.6,10
2015/12/11 7:47,1.2,9,1.2,14,1.8,9
2015/12/11 7:48,1.3,9,1.3,9,2,10
2015/12/11 7:49,1.3,9,1.3,9,0.9,10
2015/12/11 7:50,1.3,9,1.4,9,1.3,9
2015/12/11 7:51,1.2,9,1.3,9,1.5,10
2015/12/11 7:52,1.2,10,1.2,9,2.1,10
2015/12/11 7:53,1.2,10,1.2,9,2.1,11
2015/12/11 7:54,1.1,10,1.2,9,2,11
2015/12/11 7:55,1,10,1.1,9,1.1,10
2015/12/11 7:56,1,10,1,9,1.5,10
2015/12/11 7:57,1,10,1,9,2.5,10
2015/12/11 7:58,1.1,10,1.1,9,2.6,10
2015/12/11 7:59,1.3,10,1.3,9,3.6,11
2015/12/11 8:00,1.5,10,1.5,10,3.8,11
2015/12/11 8:01,1.5,10,1.5,10,3.2,9
2015/12/11 8:02,1.5,10,1.5,10,2.9,8
2015/12/11 8:03,1.5,10,1.5,10,1.8,8
2015/12/11 8:04,1.5,10,1.5,10,2.4,10
2015/12/11 8:05,1.6,10,1.6,10,2.2,9
2015/12/11 8:06,1.7,10,1.7,10,2.4,9
2015/12/11 8:07,1.8,10,1.8,10,2.6,10
2015/12/11 8:08,1.7,10,1.7,10,3,10
2015/12/11 8:09,1.6,10,1.7,10,1.8,9
2015/12/11 8:10,1.5,10,1.6,10,2,10
2015/12/11 8:11,1.4,10,1.5,10,2.7,11
2015/12/11 8:12,1.5,10,1.5,10,3.7,11
2015/12/11 8:13,1.6,10,1.6,10,3.1,10
2015/12/11 8:14,1.5,10,1.6,10,2,10
2015/12/11 8:15,1.5,10,1.5,10,2.7,9
2015/12/11 8:16,1.4,10,1.5,10,1.3,10
2015/12/11 8:17,1.3,10,1.4,10,1.6,10
2015/12/11 8:18,1.3,10,1.3,10,2.4,12
2015/12/11 8:19,1.3,11,1.3,10,2.5,12
2015/12/11 8:20,1.3,11,1.3,10,1.3,13
2015/12/11 8:21,1.2,11,1.2,10,1.1,9
2015/12/11 8:22,1,11,1.2,10,1.3,10
2015/12/11 8:23,0.9,11,1,10,0.1,12
2015/12/11 8:24,0.8,11,0.9,10,0.5,8
2015/12/11 8:25,0.8,11,0.8,10,2.6,10
2015/12/11 8:26,0.9,11,0.9,10,3.1,9
2015/12/11 8:27,1,11,1,10,2.5,10
2015/12/11 8:28,1,11,1,10,2,11
2015/12/11 8:29,1,11,1,11,1.8,8
2015/12/11 8:30,1,10,1,11,2.1,10
2015/12/11 8:31,1.1,10,1.1,11,2.5,9
2015/12/11 8:32,1.3,10,1.3,10,3.3,11
2015/12/11 8:33,1.5,10,1.5,10,3.2,11
2015/12/11 8:34,1.8,10,1.8,10,3.7,10
2015/12/11 8:35,1.8,10,1.8,10,3.7,10
2015/12/11 8:36,1.9,10,1.9,10,3.3,10
2015/12/11 8:37,1.9,10,1.9,10,3.1,9
2015/12/11 8:38,2,10,2,10,3.2,9
2015/12/11 8:39,2,10,2,10,3.3,10
2015/12/11 8:40,2.1,10,2.1,10,2.7,11
2015/12/11 8:41,2.1,10,2.1,10,3,10
2015/12/11 8:42,2.1,10,2.1,10,2.7,11
2015/12/11 8:43,2,10,2,10,2.5,9
2015/12/11 8:44,1.8,10,2,10,2.2,12
2015/12/11 8:45,1.8,11,1.8,10,2.4,12
2015/12/11 8:46,1.6,11,1.7,10,1.8,11
2015/12/11 8:47,1.5,11,1.6,10,1.4,13
2015/12/11 8:48,1.4,11,1.5,10,1.6,11
2015/12/11 8:49,1.5,12,1.5,10,3.3,12
2015/12/11 8:50,1.4,12,1.4,10,2.4,13
2015/12/11 8:51,1.4,12,1.4,10,2,12
2015/12/11 8:52,1.3,12,1.4,10,2.1,13
2015/12/11 8:53,1.3,12,1.3,10,2.4,11
2015/12/11 8:54,1.3,12,1.3,10,2.7,12
2015/12/11 8:55,1.4,12,1.4,11,3.3,12
2015/12/11 8:56,1.4,12,1.4,11,2.7,14
2015/12/11 8:57,1.4,12,1.4,11,1.9,11
2015/12/11 8:58,1.4,12,1.4,11,1.5,10
2015/12/11 8:59,1.3,12,1.4,12,1,9
2015/12/11 9:00,1.3,12,1.3,12,2.2,13
2015/12/11 9:01,1.3,12,1.3,12,1.9,12
2015/12/11 9:02,1.3,12,1.3,12,2.9,7
2015/12/11 9:03,1.3,12,1.3,12,2.9,9
2015/12/11 9:04,1.3,12,1.3,12,2.6,10
2015/12/11 9:05,1.3,11,1.3,12,3.7,10
2015/12/11 9:06,1.4,11,1.4,12,3.5,9
2015/12/11 9:07,1.5,11,1.5,11,3.6,9
2015/12/11 9:08,1.7,11,1.7,11,3.8,11
2015/12/11 9:09,1.9,11,1.9,11,3.7,11
2015/12/11 9:10,2,10,2,10,5,9
2015/12/11 9:11,2.2,10,2.2,10,4.4,9
2015/12/11 9:12,2.3,10,2.3,10,3.7,11
2015/12/11 9:13,2.4,10,2.4,10,4.3,11
2015/12/11 9:14,2.6,10,2.6,10,4.2,10
2015/12/11 9:15,2.7,10,2.7,10,4.2,11
2015/12/11 9:16,2.7,10,2.7,10,3.6,10
2015/12/11 9:17,2.7,10,2.7,10,4.9,10
2015/12/11 9:18,2.6,10,2.7,10,3.5,9
2015/12/11 9:19,2.5,10,2.6,10,3.2,9
2015/12/11 9:20,2.5,11,2.5,10,3,14
2015/12/11 9:21,2.4,10,2.4,10,3.2,9
2015/12/11 9:22,2.3,10,2.4,10,2.4,10
2015/12/11 9:23,2.1,11,2.3,10,2.2,10
2015/12/11 9:24,1.9,11,2.1,10,2.1,10
2015/12/11 9:25,1.7,11,1.9,10,1.5,11
2015/12/11 9:26,1.7,11,1.7,10,4.4,11
2015/12/11 9:27,1.6,10,1.6,10,3.1,9
2015/12/11 9:28,1.6,10,1.6,10,3.3,10
2015/12/11 9:29,1.6,11,1.6,10,3.6,9
2015/12/11 9:30,1.5,10,1.6,10,2.7,12
2015/12/11 9:31,1.5,11,1.6,10,3.1,10
2015/12/11 9:32,1.6,11,1.6,10,3,11
2015/12/11 9:33,1.7,10,1.7,11,3.2,8
2015/12/11 9:34,1.7,10,1.7,11,2.2,9
2015/12/11 9:35,1.8,10,1.8,10,2.1,10
2015/12/11 9:36,1.6,10,1.8,10,2.4,10
2015/12/11 9:37,1.7,10,1.7,10,5.1,10
2015/12/11 9:38,1.8,10,1.8,10,4.8,10
2015/12/11 9:39,1.9,10,1.9,10,4.3,11
2015/12/11 9:40,2.1,10,2.1,10,5.7,10
2015/12/11 9:41,2.2,10,2.2,10,5,10
2015/12/11 9:42,2.2,10,2.2,10,3.6,12
2015/12/11 9:43,2.2,10,2.2,10,2.7,10
2015/12/11 9:44,2.1,10,2.2,10,1.4,10
2015/12/11 9:45,2.1,10,2.1,10,4.7,9
2015/12/11 9:46,2.2,10,2.2,10,3.2,11
2015/12/11 9:47,2.1,10,2.3,10,2.9,10
2015/12/11 9:48,2,10,2.1,10,3.8,12
2015/12/11 9:49,1.9,11,2,10,3,12
2015/12/11 9:50,1.9,11,1.9,10,5.4,12
2015/12/11 9:51,2.1,11,2.1,10,8.9,8
2015/12/11 9:52,2.2,11,2.2,10,5.8,10
2015/12/11 9:53,2.2,11,2.2,10,3.3,13
2015/12/11 9:54,2.5,12,2.5,12,6.9,14
2015/12/11 9:55,2.6,12,2.6,12,4.1,13
2015/12/11 9:56,3.2,13,3.2,13,15.3,16
2015/12/11 9:57,3.9,13,3.9,13,16,16
2015/12/11 9:58,4,14,4,14,10,16
2015/12/11 9:59,4.4,14,4.4,14,9.5,2
2015/12/11 10:00,4.8,14,4.9,14,12.8,15
2015/12/11 10:01,5,15,5.1,15,10.9,16
2015/12/11 10:02,5.3,15,5.3,15,10.5,16
2015/12/11 10:03,5.9,15,5.9,15,14.1,16
2015/12/11 10:04,6.5,16,6.5,16,15.2,16
2015/12/11 10:05,7,16,7,16,15.9,1
2015/12/11 10:06,7,16,7.1,16,13.9,1
2015/12/11 10:07,7.3,16,7.3,16,18.5,16
2015/12/11 10:08,7.7,16,7.7,16,14.1,15
2015/12/11 10:09,8.2,16,8.2,16,15.9,16
2015/12/11 10:10,7.9,16,8.2,16,10.2,16
2015/12/11 10:11,8.2,16,8.2,16,19.6,15
2015/12/11 10:12,8.7,16,8.7,16,16,13
2015/12/11 10:13,8.8,16,8.9,16,13,16
2015/12/11 10:14,8.7,16,8.8,16,13.1,16
2015/12/11 10:15,8.6,16,8.8,16,17.4,14
2015/12/11 10:16,9.3,16,9.3,16,23.6,16
2015/12/11 10:17,9.2,16,9.4,16,19.5,15
2015/12/11 10:18,9.5,16,9.5,16,16,1
2015/12/11 10:19,9.4,16,9.5,16,18.1,16
2015/12/11 10:20,9.8,16,9.8,16,15.9,16
2015/12/11 10:21,9.7,16,9.9,16,17.4,16
2015/12/11 10:22,9.6,16,9.7,16,17,15
2015/12/11 10:23,9.6,16,9.7,16,15.8,15
2015/12/11 10:24,9.6,16,9.6,16,17.1,16
2015/12/11 10:25,9.6,16,9.7,16,18.3,16
2015/12/11 10:26,9.5,16,9.5,16,18.8,16
2015/12/11 10:27,9.5,16,9.5,16,15.4,16
2015/12/11 10:28,9.3,16,9.5,16,15.2,16
2015/12/11 10:29,9.2,16,9.3,16,14.1,16
2015/12/11 10:30,9.6,16,9.6,16,20.3,1
2015/12/11 10:31,9.9,16,9.9,16,16.9,16
2015/12/11 10:32,10,16,10.1,16,19.8,16
2015/12/11 10:33,9.9,16,10.1,16,15,15
2015/12/11 10:34,10.2,16,10.3,16,21.2,16
2015/12/11 10:35,10.1,16,10.1,16,19,15
2015/12/11 10:36,9.7,16,10.1,16,16.6,16
2015/12/11 10:37,9.6,16,9.7,16,14.5,15
2015/12/11 10:38,9.6,16,9.6,16,18.6,1
2015/12/11 10:39,10.1,16,10.1,16,20.3,16
2015/12/11 10:40,10.3,16,10.3,16,19,16
2015/12/11 10:41,10,16,10.2,16,17.8,16
2015/12/11 10:42,9.9,16,10.1,16,15.7,16
2015/12/11 10:43,10.1,16,10.1,16,19.9,15
2015/12/11 10:44,10,16,10.2,16,15.2,15
2015/12/11 10:45,10.1,16,10.1,16,12.2,15
2015/12/11 10:46,10.1,16,10.2,16,12.3,16
2015/12/11 10:47,10.6,16,10.6,16,19.6,16
2015/12/11 10:48,10.9,16,11,16,21.2,14
2015/12/11 10:49,10.8,16,10.9,16,23.6,1
2015/12/11 10:50,10.7,16,10.9,16,22.9,15